Weather in Skobelevskaya

Russia / Krasnodar Krai     45°11′49″N   40°25′12″E
temp.,
°C
wind,
m/s
gust,
m/s
humid.,
%
clouds,
%
prec.,
mm/h
press.,
hPa
HPBL,
m
17 may, mon
mon1700:00+18e4107799 0.0 1002186
03:00+16e018611 0.0 100311
06:00+17nw379018 0.0 1004182
09:00+21nw5670100 0.0 1006633
12:00+22wnw4568100 0.0 1007927
15:00+21w5773100 0.3 1008738
18:00+19wsw4787100 1.8 1008360
21:00+16w51097100 3.2 1009397
18 may, tue
tue1800:00+15w1291100 0.4 101184
03:00+13w31095100 0.4 1011374
06:00+14w31093100 0.0 1011425
09:00+18wsw5878100 0.0 1012783
12:00+21w576476 0.1 10111442
15:00+22w465936 0.2 10111670
18:00+21s22732 0.6 1011272
21:00+16se33865 0.8 101139
19 may, wed
wed1900:00+14ese4691100 0.0 100989
03:00+15se3689100 0.0 1008136
06:00+14wnw61196100 2.3 1010435
09:00+15sw5895100 6.1 1011507
12:00+18wsw8127548 1.6 10131421
15:00+19wsw914690 1.9 10131662
18:00+16wsw815736 0.1 10151410
21:00+14wsw715741 0.1 1016745
20 may, thu
thu2000:00+13wsw716715 0.0 1015670
03:00+10ssw34850 0.0 101660
06:00+10s358646 0.0 1016119
09:00+17ssw34665 0.0 1016607
12:00+20s125399 0.0 10151050
15:00+22ese3350100 0.0 10141235
18:00+20ne4772100 0.0 1013158
21:00+16ene511784 0.0 1012197
21 may, fri
fri2100:00+14ene48870 0.0 1011134
03:00+13e49840 0.0 1010145
06:00+14ese39875 0.0 1010180
09:00+22ese576821 0.0 1009350
12:00+27e57560 0.0 1008577
15:00+29ese45544 0.0 1008963
18:00+27e357557 0.0 1008176
21:00+21ese35885 0.0 100856